Weather reports worldwide

Advertisment
Doberlug/Kirchhain, Germany (10490): temperature & dewpoint: 08.07.2020 11:00:00 - 14.07.2020 11:00:00 (CEST)Doberlug/Kirchhain, Germany (10490): temperature 5cm & temperature -5cm: 08.07.2020 11:00:00 - 14.07.2020 11:00:00 (CEST)Doberlug/Kirchhain, Germany (10490): temperature -20cm & temperature -100cm: 08.07.2020 11:00:00 - 14.07.2020 11:00:00 (CEST)Doberlug/Kirchhain, Germany (10490): wind speed & gusts: 08.07.2020 11:00:00 - 14.07.2020 11:00:00 (CEST)Doberlug/Kirchhain, Germany (10490): wind direction: 08.07.2020 11:00:00 - 14.07.2020 11:00:00 (CEST)Doberlug/Kirchhain, Germany (10490): reduced air pressure: 08.07.2020 11:00:00 - 14.07.2020 11:00:00 (CEST)Doberlug/Kirchhain, Germany (10490): visibility: 08.07.2020 11:00:00 - 14.07.2020 11:00:00 (CEST)Doberlug/Kirchhain, Germany (10490): sunshine duration: 08.07.2020 11:00:00 - 14.07.2020 11:00:00 (CEST)Doberlug/Kirchhain, Germany (10490): precipitation: 08.07.2020 11:00:00 - 14.07.2020 11:00:00 (CEST)
Date & Time tt [°C] td [°C] tt 5cm [°C] tt -5cm [°C] tt -20cm [°C] tt -100cm [°C] ff [km/h] ff [kn] fx [km/h] fx [kn] dd ppp [hPa] vv [km] sd [min] rr [mm]
14.07.2020 11:00:00 25,2 8,4 28,3 28,0 21,5 19,3 10 6 22 12 S 1015,6 59 60 0,0
14.07.2020 10:00:00 23,4 8,3 25,5 24,8 20,6 19,3 8 4 17 9 S 1016,2 57 60 0,0
14.07.2020 09:00:00 20,9 8,6 22,0 21,5 20,1 19,3 9 5 21 12 SSW 1016,7 62 60 0,0
14.07.2020 08:00:00 17,8 8,5 17,8 18,7 20,1 19,3 10 5 17 9 S 1017,1 59 60 0,0
14.07.2020 07:00:00 15,2 8,7 13,9 16,5 20,4 19,2 6 3 11 6 S 1017,6 60 60 0,0
14.07.2020 06:00:00 9,9 7,6 7,4 16,1 21,0 19,2 5 3 8 4 S 1017,8 56 3 0,0
14.07.2020 05:00:00 10,7 8,1 7,0 16,7 21,7 19,2 5 3 8 4 S 1018,1 66 0 0,0
14.07.2020 04:00:00 10,5 8,0 7,5 17,5 22,4 19,1 4 2 6 3 S 1018,4 59 0 0,0
14.07.2020 03:00:00 10,2 7,5 7,7 18,4 23,1 19,1 3 2 4 2 S 1018,8 55 0 0,0
14.07.2020 02:00:00 10,9 8,0 8,1 19,5 23,9 19,1 3 1 6 3 ESE 1018,8 53 0 0,0
14.07.2020 01:00:00 12,2 9,2 8,7 20,7 24,8 19,0 2 1 5 3 SSE 1019,1 42 0 0,0
14.07.2020 00:00:00 13,2 9,2 10,7 22,2 25,8 19,0 1 1 6 3 N 1019,4 48 0 0,0
13.07.2020 23:00:00 13,7 8,6 12,1 24,0 26,7 19,0 5 3 8 5 NNW 1019,5 48 0 0,0
13.07.2020 22:00:00 17,0 9,2 14,3 26,4 27,6 19,0 0 0 10 5 N 1019,6 49 0 0,0
13.07.2020 21:00:00 21,5 7,9 20,5 29,5 28,2 19,0 3 1 9 5 NNW 1019,2 75 54 0,0
13.07.2020 20:00:00 24,0 5,7 25,1 32,1 28,5 19,0 6 3 11 6 NNW 1019,2 60 60 0,0
13.07.2020 19:00:00 24,4 5,5 26,2 34,2 28,4 19,0 7 4 16 9 NW 1019,6 53 60 0,0
13.07.2020 18:00:00 25,0 6,5 28,0 35,5 27,9 19,0 5 3 16 9 WNW 1020,1 71 59 0,0
13.07.2020 17:00:00 24,7 6,8 29,0 36,1 27,2 19,0 9 5 21 12 W 1020,7 60 60 0,0
13.07.2020 16:00:00 23,6 5,7 29,2 35,6 26,3 19,0 10 6 23 12 NNW 1021,5 74 58 0,0
13.07.2020 15:00:00 22,9 6,2 26,5 34,6 25,1 19,0 5 3 21 11 W 1022,2 56 46 0,0
13.07.2020 14:00:00 22,2 5,8 27,4 35,0 23,6 19,1 10 5 19 10 W 1023,0 67 60 0,0
13.07.2020 13:00:00 22,1 6,0 27,3 31,5 22,1 19,1 8 4 20 11 N 1023,7 57 55 0,0
13.07.2020 12:00:00 21,2 5,9 27,4 29,4 20,6 19,1 6 4 17 9 E 1024,3 75 60 0,0
13.07.2020 11:00:00 20,1 6,0 23,2 25,9 19,4 19,1 9 5 15 8 W 1025,0 59 60 0,0
13.07.2020 10:00:00 19,2 6,2 21,8 22,8 18,4 19,0 4 2 11 6 NW 1025,2 40 60 0,0
13.07.2020 09:00:00 17,6 7,3 18,4 19,3 17,8 19,0 5 3 9 5 SW 1025,8 56 60 0,0
13.07.2020 08:00:00 15,4 7,5 14,2 16,1 17,7 19,0 0 0 4 2 N 1026,2 71 60 0,0
13.07.2020 07:00:00 10,3 6,6 9,9 13,7 18,0 19,0 3 2 5 3 NE 1026,4 61 60 0,0
13.07.2020 06:00:00 6,3 5,0 5,2 13,1 18,5 19,0 2 1 5 3 SE 1026,6 39 4 0,0
13.07.2020 05:00:00 6,3 5,1 3,7 13,6 19,1 19,0 2 1 6 3 SW 1026,6 45 0 0,0
13.07.2020 04:00:00 7,2 5,6 4,5 14,3 19,8 19,0 3 1 3 2 SSE 1026,9 54 0 0,0
13.07.2020 03:00:00 7,5 6,0 5,2 15,2 20,5 18,9 0 0 5 3 N 1027,1 60 0 0,0
13.07.2020 02:00:00 8,5 6,5 5,7 16,2 21,3 18,9 0 0 3 1 N 1026,9 59 0 0,0
13.07.2020 01:00:00 9,4 6,8 6,8 17,3 22,1 18,9 0 0 3 2 N 1027,0 66 0 0,0
13.07.2020 00:00:00 10,7 6,9 7,7 18,7 22,9 18,9 0 0 4 2 N 1026,7 65 0 0,0
12.07.2020 23:00:00 12,5 7,0 8,5 20,3 23,8 18,9 2 1 5 3 W 1026,7 68 0 0,0
12.07.2020 22:00:00 14,1 7,3 10,9 22,5 24,6 18,9 4 2 9 5 NNE 1026,5 59 0 0,0
12.07.2020 21:00:00 18,2 5,8 16,7 25,3 25,2 18,9 5 3 16 9 N 1025,8 66 51 0,0
12.07.2020 20:00:00 19,6 4,8 19,1 27,8 25,4 18,9 16 9 22 12 NNW 1025,8 75 55 0,0
12.07.2020 19:00:00 20,9 4,9 22,7 29,5 25,3 18,9 17 9 29 16 NNW 1025,6 72 40 0,0
12.07.2020 18:00:00 21,2 5,1 25,1 31,1 24,8 18,9 13 7 34 18 NW 1025,8 75 55 0,0
12.07.2020 17:00:00 22,0 5,2 25,5 30,9 24,1 19,0 21 12 33 18 WNW 1025,9 69 52 0,0
12.07.2020 16:00:00 20,3 4,7 21,2 29,5 23,6 19,0 16 8 33 18 NW 1026,4 75 17 0,0
12.07.2020 15:00:00 22,2 5,4 26,9 29,9 22,8 19,0 18 10 38 20 NNW 1026,3 50 40 0,0
12.07.2020 14:00:00 19,5 5,9 20,7 28,1 22,0 19,0 18 10 32 17 NW 1026,8 72 26 0,0
12.07.2020 13:00:00 19,9 5,3 22,9 28,0 20,9 19,0 16 9 29 16 NW 1026,8 62 38 0,0
12.07.2020 12:00:00 19,9 6,3 24,2 26,4 19,8 19,0 14 7 30 16 NW 1026,9 51 44 0,0
12.07.2020 11:00:00 18,3 6,0 19,5 24,3 18,8 19,0 14 8 25 14 NW 1026,9 75 50 0,0
12.07.2020 10:00:00 17,8 7,8 20,3 21,8 17,9 19,0 15 8 21 12 WNW 1027,1 74 60 0,0
12.07.2020 09:00:00 16,3 9,2 17,8 18,4 17,3 19,0 9 5 14 8 NW 1027,1 75 57 0,0
12.07.2020 08:00:00 13,1 8,6 13,5 15,6 17,2 19,0 10 6 14 7 NW 1026,9 69 14 0,0
12.07.2020 07:00:00 11,9 8,7 11,3 13,5 17,4 19,0 2 1 4 2 WSW 1026,5 68 48 0,0
12.07.2020 06:00:00 7,5 6,5 6,5 12,7 17,9 19,0 0 0 5 3 N 1026,4 54 4 0,0
12.07.2020 05:00:00 7,1 6,2 4,7 13,0 18,5 18,9 5 3 7 4 SW 1026,0 45 0 0,0
12.07.2020 04:00:00 7,5 6,2 6,3 13,6 19,1 18,9 4 2 5 3 SSE 1025,7 56 0 0,0
12.07.2020 03:00:00 7,8 6,5 4,8 14,4 19,7 18,9 2 1 4 2 NNE 1025,5 57 0 0,0
12.07.2020 02:00:00 8,7 7,2 6,1 15,3 20,4 18,9 0 0 4 2 N 1025,4 60 0 0,0
12.07.2020 01:00:00 9,4 6,9 6,8 16,3 21,2 18,9 3 1 6 3 SW 1025,5 62 0 0,0
12.07.2020 00:00:00 10,2 7,4 7,3 17,4 22,0 18,9 6 3 7 4 WNW 1025,1 71 0 0,0
11.07.2020 23:00:00 10,9 7,6 9,3 18,9 22,8 18,9 8 4 9 5 NW 1024,6 61 0 0,0
11.07.2020 22:00:00 13,6 7,8 9,9 20,8 23,5 18,9 0 0 6 3 N 1024,2 70 0 0,0
11.07.2020 21:00:00 16,4 6,8 14,9 23,1 24,1 18,9 6 4 20 11 NNW 1023,6 75 26 0,0
11.07.2020 20:00:00 19,3 6,3 19,8 25,0 24,5 18,9 14 8 22 12 NW 1023,3 70 12 0,0
11.07.2020 19:00:00 19,9 5,8 21,0 26,7 24,6 18,9 10 5 22 12 WNW 1022,9 57 7 0,0
11.07.2020 18:00:00 19,9 5,9 21,0 28,2 24,6 18,9 13 7 28 15 NW 1022,6 71 29 0,0
11.07.2020 17:00:00 20,0 6,6 22,1 27,4 24,5 18,9 17 9 28 15 NNW 1022,5 69 2 0,0
11.07.2020 16:00:00 19,7 5,7 20,7 29,9 24,1 18,9 13 7 32 17 NNW 1022,3 75 30 0,0
11.07.2020 15:00:00 19,0 5,5 20,4 29,9 23,3 18,9 16 8 29 16 NW 1022,7 20 31 0,0
11.07.2020 14:00:00 18,5 5,4 21,1 29,2 22,3 18,9 13 7 35 19 NW 1022,6 75 28 0,0
11.07.2020 13:00:00 18,2 6,1 21,1 28,9 21,2 18,9 14 8 29 16 W 1022,5 64 35 0,0
11.07.2020 12:00:00 17,5 6,5 20,0 27,4 20,0 18,9 11 6 28 15 N 1022,3 56 46 0,0
11.07.2020 11:00:00 17,4 6,6 21,1 24,3 18,9 18,9 13 7 25 14 WNW 1021,9 66 54 0,0
11.07.2020 10:00:00 16,3 6,9 19,4 21,1 18,2 18,9 12 7 23 13 NNW 1021,8 68 57 0,0
11.07.2020 09:00:00 14,5 8,2 16,1 17,8 18,0 18,9 14 8 21 11 NW 1021,8 75 42 0,0
11.07.2020 08:00:00 12,6 9,0 12,4 16,0 18,1 18,9 13 7 19 10 NW 1021,6 53 1 0,0
11.07.2020 07:00:00 12,3 9,6 12,3 15,3 18,3 18,9 10 6 18 10 NW 1021,0 56 0 0,0
11.07.2020 06:00:00 12,0 10,0 11,6 15,0 18,7 18,9 13 7 17 9 WNW 1020,5 53 0 0,0
11.07.2020 05:00:00 10,6 9,4 9,7 15,2 19,2 18,9 8 4 10 5 W 1019,8 49 0 0,0
11.07.2020 04:00:00 11,9 10,1 9,9 15,9 19,6 18,9 5 3 8 5 W 1019,5 70 0 0,0
11.07.2020 03:00:00 12,8 10,3 11,7 16,7 20,1 18,8 4 2 10 6 WNW 1019,5 75 0 0,0
11.07.2020 02:00:00 13,2 10,5 12,4 17,3 20,5 18,8 8 5 16 9 WNW 1019,1 75 0 0,0
11.07.2020 01:00:00 14,1 10,8 13,4 18,0 21,0 18,8 7 4 12 7 WNW 1018,3 75 0 0,0
11.07.2020 00:00:00 14,5 10,7 13,7 18,2 21,6 18,8 3 2 23 12 SW 1017,3 75 0 0,0
10.07.2020 23:00:00 14,6 10,4 14,0 18,9 22,3 18,8 16 9 36 20 NW 1016,4 75 0 0,0
10.07.2020 22:00:00 16,4 10,8 15,8 20,5 23,0 18,8 23 13 49 26 WNW 1015,0 68 0 0,0
10.07.2020 21:00:00 17,3 11,8 17,1 22,1 23,6 18,8 27 15 49 26 WNW 1014,0 75 0 0,0
10.07.2020 20:00:00 19,2 12,5 19,2 23,9 24,0 18,8 34 18 64 35 WNW 1012,4 56 0 0,0
10.07.2020 19:00:00 22,7 13,0 22,9 25,8 24,2 18,8 31 17 49 27 W 1010,5 69 0 0,0
10.07.2020 18:00:00 24,3 11,0 24,3 27,6 24,2 18,8 32 17 52 28 W 1009,5 65 18 0,0
10.07.2020 17:00:00 25,1 12,6 25,9 27,9 24,0 18,8 31 17 54 29 W 1009,0 55 1 0,0
10.07.2020 16:00:00 26,1 15,0 26,5 28,4 23,8 18,8 21 12 45 24 W 1007,9 52 0 0,0
10.07.2020 15:00:00 27,7 13,6 28,3 29,0 23,3 18,8 33 18 54 29 W 1006,5 66 0 0,0
10.07.2020 14:00:00 28,9 13,5 29,6 28,8 22,6 18,8 31 17 55 30 SW 1005,9 48 8 0,0
10.07.2020 13:00:00 28,8 13,3 29,3 28,5 21,9 18,8 30 16 49 27 SW 1005,6 75 0 0,0
10.07.2020 12:00:00 28,7 13,9 29,0 28,1 20,8 18,8 21 12 36 19 SW 1005,8 55 7 0,0
10.07.2020 11:00:00 26,3 16,2 28,5 25,7 19,9 18,8 11 6 23 12 S 1006,6 54 42 0,0
10.07.2020 10:00:00 22,8 15,6 23,2 22,8 19,3 18,9 9 5 18 10 SE 1007,6 72 3 0,0
10.07.2020 09:00:00 21,8 15,6 22,4 21,0 18,9 18,9 7 4 11 6 SE 1008,5 57 19 0,0
10.07.2020 08:00:00 19,6 15,6 19,9 19,1 18,8 18,9 5 3 16 9 S 1009,4 65 0 0,0
10.07.2020 07:00:00 18,3 15,6 18,1 18,0 18,8 18,9 9 5 15 8 S 1009,4 48 0 0,0
10.07.2020 06:00:00 17,5 15,6 16,9 17,5 19,0 18,9 8 4 12 7 S 1010,2 54 0 0,0
10.07.2020 05:00:00 17,1 15,5 16,2 17,4 19,2 18,9 8 4 14 7 S 1010,8 45 0 0,0
10.07.2020 04:00:00 17,6 15,6 16,7 18,0 19,4 18,9 7 4 13 7 S 1011,2 55 0 0,0
10.07.2020 03:00:00 17,8 15,8 17,1 18,1 19,6 18,9 8 4 12 7 S 1011,7 52 0 0,0
10.07.2020 02:00:00 17,8 15,8 16,9 18,5 19,9 18,9 6 4 9 5 SSE 1011,8 50 0 0,0
10.07.2020 01:00:00 18,5 15,6 17,5 18,6 20,2 18,9 7 4 10 5 WSW 1012,1 69 0 0,0
10.07.2020 00:00:00 18,6 15,5 17,3 19,2 20,5 18,9 8 4 20 11 WNW 1012,1 62 0 0,0
09.07.2020 23:00:00 19,6 15,9 18,7 19,9 20,9 18,9 13 7 27 15 WNW 1012,0 57 0 0,0
09.07.2020 22:00:00 20,3 16,1 18,6 20,8 21,1 18,9 16 8 24 13 W 1011,5 59 0 0,0
09.07.2020 21:00:00 22,3 15,8 21,5 22,0 21,3 19,0 12 7 27 15 WSW 1011,1 74 0 0,0
09.07.2020 20:00:00 22,3 16,3 21,8 23,2 21,2 19,0 3 2 16 9 SW 1010,9 51 11 0,0
09.07.2020 19:00:00 22,6 15,7 24,0 23,9 21,0 19,0 11 6 24 13 SW 1011,1 67 18 0,0
09.07.2020 18:00:00 21,6 16,8 23,2 23,4 20,8 19,0 10 5 22 12 SW 1011,7 75 10 0,1
09.07.2020 17:00:00 20,7 16,9 20,1 22,9 20,5 19,1 13 7 24 13 SW 1012,5 55 2 0,2
09.07.2020 16:00:00 21,0 15,3 21,4 23,8 20,1 19,1 18 10 27 15 WSW 1012,9 46 1 0,0
09.07.2020 15:00:00 20,9 15,2 22,4 22,7 19,7 19,1 16 9 29 16 SW 1013,5 75 0 0,0
09.07.2020 14:00:00 19,8 14,5 20,4 22,5 19,3 19,2 16 9 27 14 SSW 1013,6 75 0 0,0
09.07.2020 13:00:00 19,7 13,5 21,2 22,9 18,8 19,2 17 9 26 14 S 1013,9 75 0 0,0
09.07.2020 12:00:00 19,1 13,1 20,4 21,7 18,2 19,2 12 6 21 12 S 1014,6 75 1 0,0
09.07.2020 11:00:00 18,4 13,3 20,0 21,2 17,5 19,3 14 7 26 14 SSW 1015,2 53 2 0,0
09.07.2020 10:00:00 17,7 13,0 19,6 19,7 16,8 19,3 14 7 24 13 SSW 1015,4 55 10 0,0
09.07.2020 09:00:00 15,5 13,0 16,4 17,0 16,4 19,3 9 5 17 9 S 1016,1 38 0 0,0
09.07.2020 08:00:00 13,8 12,4 13,6 15,2 16,3 19,3 6 4 13 7 S 1016,7 26 0 0,0
09.07.2020 07:00:00 12,9 12,1 12,8 14,3 16,3 19,3 6 3 10 6 S 1016,7 16 0 0,0
09.07.2020 06:00:00 12,0 11,4 11,7 13,6 16,4 19,4 8 5 12 6 S 1016,9 13 0 0,0
09.07.2020 05:00:00 11,4 10,9 11,0 13,4 16,6 19,4 6 4 10 5 S 1017,0 10 0 0,0
09.07.2020 04:00:00 11,2 10,7 10,8 13,4 16,8 19,4 7 4 14 7 S 1017,0 10 0 0,0
09.07.2020 03:00:00 10,9 10,4 10,3 13,4 17,2 19,4 5 3 7 4 SSE 1017,0 11 0 0,0
09.07.2020 02:00:00 11,2 10,7 9,5 13,5 17,5 19,5 6 3 13 7 S 1017,0 14 0 0,0
09.07.2020 01:00:00 11,4 10,9 10,1 14,1 18,0 19,5 8 4 11 6 S 1017,3 16 0 0,0
09.07.2020 00:00:00 11,4 10,8 9,6 14,6 18,4 19,5 7 4 9 5 SSW 1017,6 19 0 0,0
08.07.2020 23:00:00 12,4 11,4 11,2 15,4 18,9 19,5 4 2 6 4 S 1017,5 28 0 0,0
08.07.2020 22:00:00 13,3 11,7 10,6 16,4 19,3 19,5 5 3 9 5 SW 1017,0 42 0 0,0
08.07.2020 21:00:00 15,5 11,5 13,6 18,1 19,6 19,6 6 3 17 9 WSW 1016,5 59 38 0,0
08.07.2020 20:00:00 16,2 11,2 16,0 19,3 19,6 19,6 10 5 18 10 W 1016,2 49 10 0,0
08.07.2020 19:00:00 16,3 12,3 16,7 19,9 19,5 19,6 10 5 16 9 W 1016,2 42 0 0,0
08.07.2020 18:00:00 15,7 12,5 16,1 19,9 19,4 19,6 10 5 17 9 W 1016,2 37 1 0,0
08.07.2020 17:00:00 15,0 12,7 15,4 18,7 19,5 19,6 6 3 17 9 WNW 1016,2 27 0 0,6
08.07.2020 16:00:00 14,9 12,3 15,0 19,0 19,5 19,7 12 7 16 9 NNW 1016,0 18 0 0,0
08.07.2020 15:00:00 16,0 11,4 16,7 19,5 19,4 19,7 9 5 16 9 W 1015,7 57 0 0,0
08.07.2020 14:00:00 15,8 11,2 17,4 19,4 19,3 19,7 9 5 19 10 WSW 1015,8 56 0 0,0
08.07.2020 13:00:00 15,6 11,1 16,7 20,3 19,0 19,7 11 6 21 11 SW 1015,7 45 0 0,0
08.07.2020 12:00:00 14,4 11,7 14,6 18,2 18,8 19,7 9 5 19 10 WSW 1015,8 42 0 0,0
08.07.2020 11:00:00 14,0 12,0 14,0 18,0 18,8 19,7 10 5 21 11 SW 1016,0 31 0 0,2

tt = temperature
td = dewpoint
tt 5cm = temperature 5cm
tt -5cm = temperature -5cm
tt -20cm = temperature -20cm
tt -100cm = temperature -100cm
ff = wind speed
fx = gusts
dd = wind direction
ppp = reduced air pressure
vv = visibility
sd = sunshine duration
rr = precipitation

Next stations